TimeCDT,TemperatureF,Dew PointF,Humidity,Sea Level PressureIn,VisibilityMPH,Wind Direction,Wind SpeedMPH,Gust SpeedMPH,PrecipitationIn,Events,Conditions,WindDirDegrees,DateUTC
12:53 AM,48.9,37.0,64,29.93,10.0,NNW,3.5,-,N/A,,Clear,340,2012-09-26 05:53:00
1:53 AM,48.9,35.1,59,29.94,10.0,NW,6.9,-,N/A,,Clear,320,2012-09-26 06:53:00
2:53 AM,46.0,36.0,68,29.96,10.0,Calm,Calm,-,N/A,,Clear,0,2012-09-26 07:53:00
3:53 AM,42.1,36.0,79,29.99,10.0,Calm,Calm,-,N/A,,Clear,0,2012-09-26 08:53:00
4:53 AM,44.1,35.1,71,30.01,10.0,NNW,4.6,-,N/A,,Clear,340,2012-09-26 09:53:00
5:53 AM,42.1,34.0,73,30.03,10.0,North,4.6,-,N/A,,Clear,350,2012-09-26 10:53:00
6:53 AM,41.0,33.8,76,30.05,10.0,NNW,3.5,-,N/A,,Clear,340,2012-09-26 11:53:00
7:53 AM,43.0,34.0,71,30.09,10.0,Calm,Calm,-,N/A,,Clear,0,2012-09-26 12:53:00
8:53 AM,48.0,36.0,63,30.09,10.0,NNW,3.5,-,N/A,,Clear,330,2012-09-26 13:53:00
9:53 AM,57.0,36.0,45,30.11,10.0,Calm,Calm,-,N/A,,Clear,0,2012-09-26 14:53:00
10:53 AM,64.9,34.0,32,30.10,8.0,Variable,4.6,-,N/A,,Clear,0,2012-09-26 15:53:00
11:53 AM,70.0,35.1,28,30.11,10.0,East,6.9,-,N/A,,Clear,100,2012-09-26 16:53:00
12:53 PM,73.9,37.0,26,30.09,10.0,ENE,4.6,-,N/A,,Clear,60,2012-09-26 17:53:00
1:53 PM,77.0,37.0,24,30.07,10.0,East,3.5,-,N/A,,Clear,90,2012-09-26 18:53:00
2:53 PM,80.1,37.0,21,30.06,10.0,NE,6.9,-,N/A,,Clear,50,2012-09-26 19:53:00
3:53 PM,80.1,35.1,20,30.06,10.0,ESE,6.9,-,N/A,,Clear,110,2012-09-26 20:53:00
4:53 PM,79.0,34.0,20,30.06,10.0,Variable,4.6,-,N/A,,Clear,0,2012-09-26 21:53:00
5:53 PM,78.1,35.1,21,30.07,10.0,East,6.9,-,N/A,,Clear,80,2012-09-26 22:53:00
6:53 PM,73.0,37.0,27,30.10,10.0,ESE,5.8,-,N/A,,Clear,120,2012-09-26 23:53:00
7:53 PM,64.0,37.0,37,30.13,10.0,ESE,3.5,-,N/A,,Clear,110,2012-09-27 00:53:00
8:53 PM,55.0,37.0,51,30.16,10.0,Calm,Calm,-,N/A,,Clear,0,2012-09-27 01:53:00
9:53 PM,50.0,37.4,62,30.15,10.0,Calm,Calm,-,N/A,,Clear,0,2012-09-27 02:53:00
10:53 PM,46.4,35.6,66,30.16,10.0,Calm,Calm,-,N/A,,Clear,0,2012-09-27 03:53:00
11:53 PM,46.0,37.0,71,30.18,10.0,Calm,Calm,-,N/A,,Clear,0,2012-09-27 04:53:00